Year,Month,Day,Hour,Minute,Value (Times are PST for temperature in C)
2015,05,08,00,00,15.00
2015,05,08,00,01,15.00
2015,05,08,00,02,15.00
2015,05,08,00,03,15.00
2015,05,08,00,04,15.00
2015,05,08,00,05,14.90
2015,05,08,00,06,14.90
2015,05,08,00,07,14.90
2015,05,08,00,08,14.80
2015,05,08,00,09,14.80
2015,05,08,00,10,14.80
2015,05,08,00,11,14.70
2015,05,08,00,12,14.70
2015,05,08,00,13,14.70
2015,05,08,00,14,14.70
2015,05,08,00,15,14.70
2015,05,08,00,16,14.60
2015,05,08,00,17,14.60
2015,05,08,00,18,14.60
2015,05,08,00,19,14.60
2015,05,08,00,20,14.60
2015,05,08,00,21,14.60
2015,05,08,00,22,14.60
2015,05,08,00,23,14.60
2015,05,08,00,24,14.60
2015,05,08,00,25,14.60
2015,05,08,00,26,14.60
2015,05,08,00,27,14.60
2015,05,08,00,28,14.60
2015,05,08,00,29,14.60
2015,05,08,00,30,14.60
2015,05,08,00,31,14.60
2015,05,08,00,32,14.60
2015,05,08,00,33,14.50
2015,05,08,00,34,14.60
2015,05,08,00,35,14.50
2015,05,08,00,36,14.50
2015,05,08,00,37,14.50
2015,05,08,00,38,14.50
2015,05,08,00,39,14.50
2015,05,08,00,40,14.50
2015,05,08,00,41,14.50
2015,05,08,00,42,14.50
2015,05,08,00,43,14.50
2015,05,08,00,44,14.50
2015,05,08,00,45,14.50
2015,05,08,00,46,14.50
2015,05,08,00,47,14.50
2015,05,08,00,48,14.50
2015,05,08,00,49,14.50
2015,05,08,00,50,14.50
2015,05,08,00,51,14.50
2015,05,08,00,52,14.50
2015,05,08,00,53,14.50
2015,05,08,00,54,14.50
2015,05,08,00,55,14.40
2015,05,08,00,56,14.40
2015,05,08,00,57,14.40
2015,05,08,00,58,14.40
2015,05,08,00,59,14.40
2015,05,08,01,00,14.40
2015,05,08,01,01,14.40
2015,05,08,01,02,14.40
2015,05,08,01,03,14.40
2015,05,08,01,04,14.40
2015,05,08,01,05,14.40
2015,05,08,01,06,14.40
2015,05,08,01,07,14.40
2015,05,08,01,08,14.40
2015,05,08,01,09,14.40
2015,05,08,01,10,14.40
2015,05,08,01,11,14.40
2015,05,08,01,12,14.30
2015,05,08,01,13,14.30
2015,05,08,01,14,14.30
2015,05,08,01,15,14.30
2015,05,08,01,16,14.20
2015,05,08,01,17,14.20
2015,05,08,01,18,14.20
2015,05,08,01,19,14.10
2015,05,08,01,20,14.10
2015,05,08,01,21,14.10
2015,05,08,01,22,14.10
2015,05,08,01,23,14.00
2015,05,08,01,24,14.00
2015,05,08,01,25,14.00
2015,05,08,01,26,14.00
2015,05,08,01,27,13.90
2015,05,08,01,28,13.90
2015,05,08,01,29,13.90
2015,05,08,01,30,13.90
2015,05,08,01,31,13.90
2015,05,08,01,32,13.80
2015,05,08,01,33,13.80
2015,05,08,01,34,13.80
2015,05,08,01,35,13.80
2015,05,08,01,36,13.90
2015,05,08,01,37,13.80
2015,05,08,01,38,13.80
2015,05,08,01,39,13.80
2015,05,08,01,40,13.80
2015,05,08,01,41,13.80
2015,05,08,01,42,13.80
2015,05,08,01,43,13.80
2015,05,08,01,44,13.80
2015,05,08,01,45,13.80
2015,05,08,01,46,13.80
2015,05,08,01,47,13.70
2015,05,08,01,48,13.70
2015,05,08,01,49,13.70
2015,05,08,01,50,13.80
2015,05,08,01,51,13.80
2015,05,08,01,52,13.80
2015,05,08,01,53,13.70
2015,05,08,01,54,13.70
2015,05,08,01,55,13.70
2015,05,08,01,56,13.70
2015,05,08,01,57,13.70
2015,05,08,01,58,13.70
2015,05,08,01,59,13.70
2015,05,08,02,00,13.70
2015,05,08,02,01,13.70
2015,05,08,02,02,13.70
2015,05,08,02,03,13.70
2015,05,08,02,04,13.70
2015,05,08,02,05,13.70
2015,05,08,02,06,13.60
2015,05,08,02,07,13.60
2015,05,08,02,08,13.60
2015,05,08,02,09,13.60
2015,05,08,02,10,13.60
2015,05,08,02,11,13.60
2015,05,08,02,12,13.60
2015,05,08,02,13,13.50
2015,05,08,02,14,13.50
2015,05,08,02,15,13.50
2015,05,08,02,16,13.50
2015,05,08,02,17,13.50
2015,05,08,02,18,13.50
2015,05,08,02,19,13.60
2015,05,08,02,20,13.60
2015,05,08,02,21,13.60
2015,05,08,02,22,13.60
2015,05,08,02,23,13.60
2015,05,08,02,24,13.60
2015,05,08,02,25,13.60
2015,05,08,02,26,13.60
2015,05,08,02,27,13.50
2015,05,08,02,28,13.50
2015,05,08,02,29,13.50
2015,05,08,02,30,13.40
2015,05,08,02,31,13.40
2015,05,08,02,32,13.40
2015,05,08,02,33,13.40
2015,05,08,02,34,13.30
2015,05,08,02,35,13.30
2015,05,08,02,36,13.30
2015,05,08,02,37,13.30
2015,05,08,02,38,13.30
2015,05,08,02,39,13.30
2015,05,08,02,40,13.30
2015,05,08,02,41,13.30
2015,05,08,02,42,13.30
2015,05,08,02,43,13.30
2015,05,08,02,44,13.20
2015,05,08,02,45,13.20
2015,05,08,02,46,13.20
2015,05,08,02,47,13.20
2015,05,08,02,48,13.20
2015,05,08,02,49,13.10
2015,05,08,02,50,13.10
2015,05,08,02,51,13.10
2015,05,08,02,52,13.10
2015,05,08,02,53,13.10
2015,05,08,02,54,13.10
2015,05,08,02,55,13.00
2015,05,08,02,56,13.00
2015,05,08,02,57,13.00
2015,05,08,02,58,13.00
2015,05,08,02,59,13.00
2015,05,08,03,00,13.00
2015,05,08,03,01,13.00
2015,05,08,03,02,13.00
2015,05,08,03,06,13.00
2015,05,08,03,07,13.00
2015,05,08,03,08,12.90
2015,05,08,03,09,12.90
2015,05,08,03,10,12.90
2015,05,08,03,11,12.90
2015,05,08,03,12,12.90
2015,05,08,03,13,12.90
2015,05,08,03,14,12.80
2015,05,08,03,15,12.80
2015,05,08,03,16,12.80
2015,05,08,03,17,12.80
2015,05,08,03,18,12.80
2015,05,08,03,19,12.70
2015,05,08,03,20,12.70
2015,05,08,03,21,12.70
2015,05,08,03,22,12.70
2015,05,08,03,23,12.70
2015,05,08,03,24,12.70
2015,05,08,03,25,12.70
2015,05,08,03,26,12.70
2015,05,08,03,27,12.60
2015,05,08,03,28,12.60
2015,05,08,03,29,12.60
2015,05,08,03,30,12.60
2015,05,08,03,31,12.60
2015,05,08,03,32,12.60
2015,05,08,03,33,12.50
2015,05,08,03,34,12.50
2015,05,08,03,35,12.50
2015,05,08,03,36,12.50
2015,05,08,03,37,12.40
2015,05,08,03,38,12.40
2015,05,08,03,39,12.40
2015,05,08,03,40,12.40
2015,05,08,03,41,12.40
2015,05,08,03,42,12.40
2015,05,08,03,43,12.40
2015,05,08,03,44,12.40
2015,05,08,03,45,12.40
2015,05,08,03,46,12.40
2015,05,08,03,47,12.40
2015,05,08,03,48,12.40
2015,05,08,03,49,12.40
2015,05,08,03,50,12.40
2015,05,08,03,51,12.40
2015,05,08,03,52,12.30
2015,05,08,03,53,12.40
2015,05,08,03,54,12.30
2015,05,08,03,55,12.30
2015,05,08,03,56,12.30
2015,05,08,03,57,12.30
2015,05,08,03,58,12.30
2015,05,08,03,59,12.30
2015,05,08,04,00,12.30
2015,05,08,04,01,12.30
2015,05,08,04,02,12.30
2015,05,08,04,03,12.30
2015,05,08,04,04,12.30
2015,05,08,04,05,12.30
2015,05,08,04,06,12.20
2015,05,08,04,07,12.20
2015,05,08,04,08,12.20
2015,05,08,04,09,12.20
2015,05,08,04,10,12.20
2015,05,08,04,11,12.30
2015,05,08,04,12,12.20
2015,05,08,04,13,12.20
2015,05,08,04,14,12.20
2015,05,08,04,15,12.20
2015,05,08,04,16,12.20
2015,05,08,04,17,12.20
2015,05,08,04,18,12.20
2015,05,08,04,19,12.20
2015,05,08,04,20,12.20
2015,05,08,04,21,12.20
2015,05,08,04,22,12.20
2015,05,08,04,23,12.20
2015,05,08,04,24,12.20
2015,05,08,04,25,12.20
2015,05,08,04,26,12.10
2015,05,08,04,27,12.10
2015,05,08,04,28,12.10
2015,05,08,04,29,12.10
2015,05,08,04,30,12.10
2015,05,08,04,31,12.10
2015,05,08,04,32,12.10
2015,05,08,04,33,12.10
2015,05,08,04,34,12.10
2015,05,08,04,35,12.10
2015,05,08,04,36,12.10
2015,05,08,04,37,12.00
2015,05,08,04,38,12.00
2015,05,08,04,39,12.00
2015,05,08,04,40,11.90
2015,05,08,04,41,11.90
2015,05,08,04,42,11.90
2015,05,08,04,43,11.90
2015,05,08,04,44,11.80
2015,05,08,04,45,11.80
2015,05,08,04,46,11.80
2015,05,08,04,47,11.80
2015,05,08,04,48,11.80
2015,05,08,04,49,11.80
2015,05,08,04,50,11.80
2015,05,08,04,51,11.80
2015,05,08,04,52,11.80
2015,05,08,04,53,11.80
2015,05,08,04,54,11.80
2015,05,08,04,55,11.80
2015,05,08,04,56,11.80
2015,05,08,04,57,11.80
2015,05,08,04,58,11.70
2015,05,08,04,59,11.70
2015,05,08,05,00,11.70
2015,05,08,05,01,11.70
2015,05,08,05,02,11.70
2015,05,08,05,03,11.70
2015,05,08,05,04,11.70
2015,05,08,05,05,11.70
2015,05,08,05,06,11.70
2015,05,08,05,07,11.70
2015,05,08,05,08,11.70
2015,05,08,05,09,11.70
2015,05,08,05,10,11.70
2015,05,08,05,11,11.70
2015,05,08,05,12,11.70
2015,05,08,05,13,11.70
2015,05,08,05,14,11.80
2015,05,08,05,15,11.80
2015,05,08,05,16,11.80
2015,05,08,05,17,11.80
2015,05,08,05,18,11.80
2015,05,08,05,19,11.80
2015,05,08,05,20,11.80
2015,05,08,05,21,11.80
2015,05,08,05,22,11.80
2015,05,08,05,23,11.80
2015,05,08,05,24,11.80
2015,05,08,05,25,11.80
2015,05,08,05,26,11.80
2015,05,08,05,27,11.80
2015,05,08,05,28,11.80
2015,05,08,05,29,11.70
2015,05,08,05,30,11.70
2015,05,08,05,31,11.70
2015,05,08,05,32,11.70
2015,05,08,05,33,11.70
2015,05,08,05,34,11.70
2015,05,08,05,35,11.70
2015,05,08,05,36,11.70
2015,05,08,05,37,11.70
2015,05,08,05,38,11.70
2015,05,08,05,39,11.70
2015,05,08,05,40,11.70
2015,05,08,05,41,11.80
2015,05,08,05,42,11.80
2015,05,08,05,43,11.80
2015,05,08,05,44,11.80
2015,05,08,05,45,11.80
2015,05,08,05,46,11.80
2015,05,08,05,47,11.80
2015,05,08,05,48,11.80
2015,05,08,05,49,11.80
2015,05,08,05,50,11.90
2015,05,08,05,51,11.90
2015,05,08,05,52,11.90
2015,05,08,05,53,11.90
2015,05,08,05,54,11.90
2015,05,08,05,55,11.90
2015,05,08,05,56,11.90
2015,05,08,05,57,11.90
2015,05,08,05,58,11.90
2015,05,08,05,59,11.90
2015,05,08,06,00,11.90
2015,05,08,06,01,11.90
2015,05,08,06,02,11.90
2015,05,08,06,03,11.90
2015,05,08,06,04,11.80
2015,05,08,06,05,11.80
2015,05,08,06,06,11.80
2015,05,08,06,07,11.80
2015,05,08,06,08,11.80
2015,05,08,06,09,11.70
2015,05,08,06,10,11.70
2015,05,08,06,11,11.70
2015,05,08,06,12,11.70
2015,05,08,06,13,11.70
2015,05,08,06,14,11.70
2015,05,08,06,15,11.70
2015,05,08,06,16,11.70
2015,05,08,06,17,11.70
2015,05,08,06,18,11.80
2015,05,08,06,19,11.80
2015,05,08,06,20,11.80
2015,05,08,06,21,11.80
2015,05,08,06,22,11.90
2015,05,08,06,23,11.90
2015,05,08,06,24,11.90
2015,05,08,06,25,11.90
2015,05,08,06,26,12.00
2015,05,08,06,27,12.00
2015,05,08,06,28,12.00
2015,05,08,06,29,12.10
2015,05,08,06,30,12.10
2015,05,08,06,31,12.10
2015,05,08,06,32,12.10
2015,05,08,06,33,12.10
2015,05,08,06,34,12.10
2015,05,08,06,35,12.20
2015,05,08,06,36,12.20
2015,05,08,06,37,12.20
2015,05,08,06,38,12.20
2015,05,08,06,39,12.20
2015,05,08,06,40,12.20
2015,05,08,06,41,12.20
2015,05,08,06,42,12.20
2015,05,08,06,43,12.20
2015,05,08,06,44,12.20
2015,05,08,06,45,12.30
2015,05,08,06,46,12.30
2015,05,08,06,47,12.30
2015,05,08,06,48,12.30
2015,05,08,06,49,12.40
2015,05,08,06,50,12.40
2015,05,08,06,51,12.40
2015,05,08,06,52,12.40
2015,05,08,06,53,12.40
2015,05,08,06,54,12.40
2015,05,08,06,55,12.40
2015,05,08,06,56,12.50
2015,05,08,06,57,12.50
2015,05,08,06,58,12.50
2015,05,08,06,59,12.50
2015,05,08,07,00,12.50
2015,05,08,07,01,12.50
2015,05,08,07,02,12.40
2015,05,08,07,03,12.40
2015,05,08,07,04,12.40
2015,05,08,07,05,12.40
2015,05,08,07,06,12.40
2015,05,08,07,07,12.40
2015,05,08,07,08,12.40
2015,05,08,07,09,12.40
2015,05,08,07,10,12.40
2015,05,08,07,11,12.40
2015,05,08,07,12,12.50
2015,05,08,07,13,12.50
2015,05,08,07,14,12.50
2015,05,08,07,15,12.60
2015,05,08,07,16,12.60
2015,05,08,07,17,12.60
2015,05,08,07,18,12.70
2015,05,08,07,19,12.70
2015,05,08,07,20,12.70
2015,05,08,07,21,12.80
2015,05,08,07,22,12.80
2015,05,08,07,23,12.90
2015,05,08,07,24,12.90
2015,05,08,07,25,12.90
2015,05,08,07,26,13.00
2015,05,08,07,27,13.00
2015,05,08,07,28,13.00
2015,05,08,07,29,13.10
2015,05,08,07,30,13.10
2015,05,08,07,31,13.10
2015,05,08,07,32,13.20
2015,05,08,07,33,13.20
2015,05,08,07,34,13.20
2015,05,08,07,35,13.20
2015,05,08,07,36,13.20
2015,05,08,07,37,13.20
2015,05,08,07,38,13.20
2015,05,08,07,39,13.30
2015,05,08,07,40,13.30
2015,05,08,07,41,13.30
2015,05,08,07,42,13.40
2015,05,08,07,43,13.40
2015,05,08,07,44,13.40
2015,05,08,07,45,13.50
2015,05,08,07,46,13.60
2015,05,08,07,47,13.60
2015,05,08,07,48,13.70
2015,05,08,07,49,13.70
2015,05,08,07,50,13.80
2015,05,08,07,51,13.80
2015,05,08,07,52,13.80
2015,05,08,07,53,13.90
2015,05,08,07,54,13.90
2015,05,08,07,55,14.00
2015,05,08,07,56,14.10
2015,05,08,07,57,14.10
2015,05,08,07,58,14.10
2015,05,08,07,59,14.10
2015,05,08,08,00,14.10
2015,05,08,08,01,14.20
2015,05,08,08,02,14.20
2015,05,08,08,03,14.20
2015,05,08,08,04,14.20
2015,05,08,08,05,14.20
2015,05,08,08,06,14.20
2015,05,08,08,07,14.20
2015,05,08,08,08,14.30
2015,05,08,08,09,14.30
2015,05,08,08,10,14.30
2015,05,08,08,11,14.30
2015,05,08,08,12,14.40
2015,05,08,08,13,14.40
2015,05,08,08,14,14.60
2015,05,08,08,15,14.60
2015,05,08,08,16,14.70
2015,05,08,08,17,14.80
2015,05,08,08,18,14.80
2015,05,08,08,19,14.80
2015,05,08,08,20,14.80
2015,05,08,08,21,14.70
2015,05,08,08,22,14.70
2015,05,08,08,23,14.60
2015,05,08,08,24,14.60
2015,05,08,08,25,14.50
2015,05,08,08,26,14.50
2015,05,08,08,27,14.40
2015,05,08,08,28,14.40
2015,05,08,08,29,14.50
2015,05,08,08,30,14.50
2015,05,08,08,31,14.50
2015,05,08,08,32,14.50
2015,05,08,08,33,14.50
2015,05,08,08,34,14.50
2015,05,08,08,35,14.50
2015,05,08,08,36,14.40
2015,05,08,08,37,14.50
2015,05,08,08,38,14.50
2015,05,08,08,39,14.40
2015,05,08,08,40,14.50
2015,05,08,08,41,14.50
2015,05,08,08,42,14.60
2015,05,08,08,43,14.50
2015,05,08,08,44,14.50
2015,05,08,08,45,14.50
2015,05,08,08,46,14.60
2015,05,08,08,47,14.60
2015,05,08,08,48,14.60
2015,05,08,08,49,14.70
2015,05,08,08,50,14.80
2015,05,08,08,51,14.90
2015,05,08,08,52,15.00
2015,05,08,08,53,15.00
2015,05,08,08,54,15.00
2015,05,08,08,55,15.00
2015,05,08,08,56,15.00
2015,05,08,08,57,15.00
2015,05,08,08,58,15.00
2015,05,08,08,59,15.00
2015,05,08,09,00,14.90
2015,05,08,09,01,14.90
2015,05,08,09,02,14.90
2015,05,08,09,03,14.90
2015,05,08,09,04,14.90
2015,05,08,09,05,15.00
2015,05,08,09,06,15.00
2015,05,08,09,07,15.00
2015,05,08,09,08,15.00
2015,05,08,09,09,15.00
2015,05,08,09,10,15.00
2015,05,08,09,11,15.00
2015,05,08,09,12,15.00
2015,05,08,09,13,15.00
2015,05,08,09,14,15.00
2015,05,08,09,15,15.00
2015,05,08,09,16,15.00
2015,05,08,09,17,15.00
2015,05,08,09,18,15.00
2015,05,08,09,19,15.00
2015,05,08,09,20,15.00
2015,05,08,09,21,15.00
2015,05,08,09,22,15.00
2015,05,08,09,23,15.00
2015,05,08,09,24,15.00
2015,05,08,09,25,15.00
2015,05,08,09,26,15.00
2015,05,08,09,27,15.00
2015,05,08,09,28,15.00
2015,05,08,09,29,15.10
2015,05,08,09,30,15.10
2015,05,08,09,31,15.20
2015,05,08,09,32,15.30
2015,05,08,09,33,15.40
2015,05,08,09,34,15.50
2015,05,08,09,35,15.60
2015,05,08,09,36,15.60
2015,05,08,09,37,15.70
2015,05,08,09,38,15.70
2015,05,08,09,39,15.70
2015,05,08,09,40,15.80
2015,05,08,09,41,15.80
2015,05,08,09,42,15.90
2015,05,08,09,43,15.90
2015,05,08,09,44,15.80
2015,05,08,09,45,15.80
2015,05,08,09,46,15.80
2015,05,08,09,47,15.90
2015,05,08,09,48,15.80
2015,05,08,09,49,15.80
2015,05,08,09,50,15.80
2015,05,08,09,51,15.70
2015,05,08,09,52,15.60
2015,05,08,09,53,15.50
2015,05,08,09,54,15.40
2015,05,08,09,55,15.30
2015,05,08,09,56,15.30
2015,05,08,09,57,15.20
2015,05,08,09,58,15.10
2015,05,08,09,59,15.00
2015,05,08,10,00,14.80
2015,05,08,10,01,14.60
2015,05,08,10,02,14.50
2015,05,08,10,03,14.50
2015,05,08,10,04,14.40
2015,05,08,10,05,14.30
2015,05,08,10,06,14.30
2015,05,08,10,07,14.40
2015,05,08,10,08,14.50
2015,05,08,10,09,14.60
2015,05,08,10,10,14.60
2015,05,08,10,11,14.80
2015,05,08,10,12,14.90
2015,05,08,10,13,15.00
2015,05,08,10,14,15.00
2015,05,08,10,15,15.10
2015,05,08,10,16,15.10
2015,05,08,10,17,15.10
2015,05,08,10,18,15.00
2015,05,08,10,19,15.00
2015,05,08,10,20,15.00
2015,05,08,10,21,15.00
2015,05,08,10,22,15.00
2015,05,08,10,23,15.00
2015,05,08,10,24,15.00
2015,05,08,10,25,15.00
2015,05,08,10,26,15.00
2015,05,08,10,27,15.00
2015,05,08,10,28,15.00
2015,05,08,10,29,14.90
2015,05,08,10,30,14.80
2015,05,08,10,31,14.90
2015,05,08,10,32,14.90
2015,05,08,10,33,15.00
2015,05,08,10,34,15.00
2015,05,08,10,35,15.00
2015,05,08,10,36,15.10
2015,05,08,10,37,15.20
2015,05,08,10,38,15.20
2015,05,08,10,39,15.20
2015,05,08,10,40,15.30
2015,05,08,10,41,15.30
2015,05,08,10,42,15.30
2015,05,08,10,43,15.40
2015,05,08,10,44,15.50
2015,05,08,10,45,15.60
2015,05,08,10,46,15.60
2015,05,08,10,47,15.70
2015,05,08,10,48,15.80
2015,05,08,10,49,15.90
2015,05,08,10,50,16.10
2015,05,08,10,51,16.10
2015,05,08,10,52,16.20
2015,05,08,10,53,16.20
2015,05,08,10,54,16.30
2015,05,08,10,55,16.30
2015,05,08,10,56,16.30
2015,05,08,10,57,16.30
2015,05,08,10,58,16.30
2015,05,08,10,59,16.40
2015,05,08,11,00,16.40
2015,05,08,11,01,16.40
2015,05,08,11,02,16.40
2015,05,08,11,03,16.40
2015,05,08,11,04,16.40
2015,05,08,11,05,16.50
2015,05,08,11,06,16.50
2015,05,08,11,07,16.60
2015,05,08,11,08,16.60
2015,05,08,11,09,16.60
2015,05,08,11,10,16.70
2015,05,08,11,11,16.70
2015,05,08,11,12,16.80
2015,05,08,11,13,16.70
2015,05,08,11,14,16.70
2015,05,08,11,15,16.60
2015,05,08,11,16,16.60
2015,05,08,11,17,16.60
2015,05,08,11,18,16.70
2015,05,08,11,19,16.80
2015,05,08,11,20,16.90
2015,05,08,11,21,17.00
2015,05,08,11,22,17.00
2015,05,08,11,23,17.10
2015,05,08,11,24,17.10
2015,05,08,11,25,17.10
2015,05,08,11,26,17.10
2015,05,08,11,27,17.20
2015,05,08,11,28,17.40
2015,05,08,11,29,17.30
2015,05,08,11,30,17.30
2015,05,08,11,31,17.30
2015,05,08,11,32,17.20
2015,05,08,11,33,17.30
2015,05,08,11,34,17.30
2015,05,08,11,35,17.30
2015,05,08,11,36,17.40
2015,05,08,11,37,17.50
2015,05,08,11,38,17.50
2015,05,08,11,39,17.50
2015,05,08,11,40,17.40
2015,05,08,11,41,17.50
2015,05,08,11,42,17.60
2015,05,08,11,43,17.70
2015,05,08,11,44,17.70
2015,05,08,11,45,17.80
2015,05,08,11,46,17.80
2015,05,08,11,47,17.80
2015,05,08,11,48,17.80
2015,05,08,11,49,17.70
2015,05,08,11,50,17.70
2015,05,08,11,51,17.70
2015,05,08,11,52,17.80
2015,05,08,11,53,17.80
2015,05,08,11,54,17.80
2015,05,08,11,55,17.80
2015,05,08,11,56,17.80
2015,05,08,11,57,17.90
2015,05,08,11,58,17.90
2015,05,08,11,59,17.90
2015,05,08,12,00,17.90
2015,05,08,12,01,17.90
2015,05,08,12,02,17.90
2015,05,08,12,03,17.90
2015,05,08,12,04,17.90
2015,05,08,12,05,17.90
2015,05,08,12,06,17.90
2015,05,08,12,07,17.90
2015,05,08,12,08,17.80
2015,05,08,12,09,17.80
2015,05,08,12,10,17.70
2015,05,08,12,11,17.70
2015,05,08,12,12,17.70
2015,05,08,12,13,17.70
2015,05,08,12,14,17.70
2015,05,08,12,15,17.60
2015,05,08,12,16,17.60
2015,05,08,12,17,17.70
2015,05,08,12,18,17.80
2015,05,08,12,19,17.80
2015,05,08,12,20,17.70
2015,05,08,12,21,17.70
2015,05,08,12,22,17.80
2015,05,08,12,23,17.80
2015,05,08,12,24,17.80
2015,05,08,12,25,17.70
2015,05,08,12,26,17.70
2015,05,08,12,27,17.60
2015,05,08,12,28,17.50
2015,05,08,12,29,17.50
2015,05,08,12,30,17.50
2015,05,08,12,31,17.50
2015,05,08,12,32,17.50
2015,05,08,12,33,17.60
2015,05,08,12,34,17.70
2015,05,08,12,35,17.70
2015,05,08,12,36,17.70
2015,05,08,12,37,17.70
2015,05,08,12,38,17.70
2015,05,08,12,39,17.80
2015,05,08,12,40,17.80
2015,05,08,12,41,17.80
2015,05,08,12,42,17.70
2015,05,08,12,43,17.70
2015,05,08,12,44,17.70
2015,05,08,12,45,17.70
2015,05,08,12,46,17.70
2015,05,08,12,47,17.80
2015,05,08,12,48,17.70
2015,05,08,12,49,17.70
2015,05,08,12,50,17.80
2015,05,08,12,51,17.80
2015,05,08,12,52,17.90
2015,05,08,12,53,17.90
2015,05,08,12,54,18.00
2015,05,08,12,55,18.00
2015,05,08,12,56,18.00
2015,05,08,12,57,18.10
2015,05,08,12,58,18.20
2015,05,08,12,59,18.20
2015,05,08,13,00,18.30
2015,05,08,13,01,18.40
2015,05,08,13,02,18.40
2015,05,08,13,03,18.40
2015,05,08,13,04,18.40
2015,05,08,13,05,18.20
2015,05,08,13,06,18.10
2015,05,08,13,07,18.00
2015,05,08,13,08,18.00
2015,05,08,13,09,17.90
2015,05,08,13,10,17.80
2015,05,08,13,11,17.80
2015,05,08,13,12,17.90
2015,05,08,13,13,18.00
2015,05,08,13,14,18.10
2015,05,08,13,15,18.20
2015,05,08,13,16,18.20
2015,05,08,13,17,18.20
2015,05,08,13,18,18.20
2015,05,08,13,19,18.20
2015,05,08,13,20,18.20
2015,05,08,13,21,18.20
2015,05,08,13,22,18.10
2015,05,08,13,23,18.10
2015,05,08,13,24,18.10
2015,05,08,13,25,18.10
2015,05,08,13,26,18.20
2015,05,08,13,27,18.10
2015,05,08,13,28,18.10
2015,05,08,13,29,18.00
2015,05,08,13,30,18.10
2015,05,08,13,31,18.10
2015,05,08,13,32,18.20
2015,05,08,13,33,18.20
2015,05,08,13,34,18.30
2015,05,08,13,35,18.50
2015,05,08,13,36,18.60
2015,05,08,13,37,18.70
2015,05,08,13,38,18.80
2015,05,08,13,39,18.90
2015,05,08,13,40,18.90
2015,05,08,13,41,18.90
2015,05,08,13,42,18.80
2015,05,08,13,43,18.70
2015,05,08,13,44,18.60
2015,05,08,13,45,18.60
2015,05,08,13,46,18.60
2015,05,08,13,47,18.60
2015,05,08,13,48,18.60
2015,05,08,13,49,18.70
2015,05,08,13,50,18.70
2015,05,08,13,51,18.80
2015,05,08,13,52,18.90
2015,05,08,13,53,18.90
2015,05,08,13,54,19.10
2015,05,08,13,55,19.10
2015,05,08,13,56,19.20
2015,05,08,13,57,19.20
2015,05,08,13,58,19.30
2015,05,08,13,59,19.30
2015,05,08,14,00,19.30
2015,05,08,14,01,19.30
2015,05,08,14,02,19.30
2015,05,08,14,03,19.30
2015,05,08,14,04,19.30
2015,05,08,14,05,19.20
2015,05,08,14,06,19.20
2015,05,08,14,07,19.20
2015,05,08,14,08,19.20
2015,05,08,14,09,19.30
2015,05,08,14,10,19.40
2015,05,08,14,11,19.40
2015,05,08,14,12,19.40
2015,05,08,14,13,19.50
2015,05,08,14,14,19.50
2015,05,08,14,15,19.50
2015,05,08,14,16,19.60
2015,05,08,14,17,19.60
2015,05,08,14,18,19.60
2015,05,08,14,19,19.70
2015,05,08,14,20,19.80
2015,05,08,14,21,19.80
2015,05,08,14,22,19.70
2015,05,08,14,23,19.70
2015,05,08,14,24,19.60
2015,05,08,14,25,19.70
2015,05,08,14,26,19.70
2015,05,08,14,27,19.80
2015,05,08,14,28,19.70
2015,05,08,14,29,19.70
2015,05,08,14,30,19.80
2015,05,08,14,31,19.90
2015,05,08,14,32,20.00
2015,05,08,14,33,20.00
2015,05,08,14,34,19.90
2015,05,08,14,35,19.90
2015,05,08,14,36,19.90
2015,05,08,14,37,19.90
2015,05,08,14,38,20.00
2015,05,08,14,39,20.10
2015,05,08,14,40,20.10
2015,05,08,14,41,20.10
2015,05,08,14,42,20.20
2015,05,08,14,43,20.20
2015,05,08,14,44,20.20
2015,05,08,14,45,20.20
2015,05,08,14,46,20.30
2015,05,08,14,47,20.40
2015,05,08,14,48,20.50
2015,05,08,14,49,20.60
2015,05,08,14,50,20.80
2015,05,08,14,51,20.90
2015,05,08,14,52,21.00
2015,05,08,14,53,21.10
2015,05,08,14,54,21.10
2015,05,08,14,55,21.10
2015,05,08,14,56,21.10
2015,05,08,14,57,21.20
2015,05,08,14,58,21.20
2015,05,08,14,59,21.10
2015,05,08,15,00,21.10
2015,05,08,15,01,21.10
2015,05,08,15,02,21.00
2015,05,08,15,03,21.00
2015,05,08,15,04,21.00
2015,05,08,15,05,20.90
2015,05,08,15,06,21.00
2015,05,08,15,07,21.00
2015,05,08,15,08,21.10
2015,05,08,15,09,21.10
2015,05,08,15,10,21.10
2015,05,08,15,11,21.10
2015,05,08,15,12,21.10
2015,05,08,15,13,21.20
2015,05,08,15,14,21.20
2015,05,08,15,15,21.20
2015,05,08,15,16,21.30
2015,05,08,15,17,21.40
2015,05,08,15,18,21.40
2015,05,08,15,19,21.50
2015,05,08,15,20,21.60
2015,05,08,15,21,21.60
2015,05,08,15,22,21.50
2015,05,08,15,23,21.40
2015,05,08,15,24,21.40
2015,05,08,15,25,21.40
2015,05,08,15,26,21.40
2015,05,08,15,27,21.50
2015,05,08,15,28,21.50
2015,05,08,15,29,21.50
2015,05,08,15,30,21.60
2015,05,08,15,31,21.60
2015,05,08,15,32,21.70
2015,05,08,15,33,21.80
2015,05,08,15,34,21.80
2015,05,08,15,35,21.90
2015,05,08,15,36,22.00
2015,05,08,15,37,22.10
2015,05,08,15,38,22.20
2015,05,08,15,39,22.20
2015,05,08,15,40,22.10
2015,05,08,15,41,22.00
2015,05,08,15,42,22.00
2015,05,08,15,43,21.90
2015,05,08,15,44,21.90
2015,05,08,15,45,21.80
2015,05,08,15,46,21.60
2015,05,08,15,47,21.50
2015,05,08,15,48,21.50
2015,05,08,15,49,21.50
2015,05,08,15,50,21.50
2015,05,08,15,51,21.70
2015,05,08,15,52,21.80
2015,05,08,15,53,21.90
2015,05,08,15,54,22.00
2015,05,08,15,55,22.00
2015,05,08,15,56,22.00
2015,05,08,15,57,22.10
2015,05,08,15,58,22.10
2015,05,08,15,59,22.10
2015,05,08,16,00,22.20
2015,05,08,16,01,22.20
2015,05,08,16,02,22.10
2015,05,08,16,03,22.00
2015,05,08,16,04,22.00
2015,05,08,16,05,22.00
2015,05,08,16,06,22.10
2015,05,08,16,07,22.10
2015,05,08,16,08,22.20
2015,05,08,16,09,22.20
2015,05,08,16,10,22.20
2015,05,08,16,11,22.20
2015,05,08,16,12,22.20
2015,05,08,16,13,22.20
2015,05,08,16,14,22.10
2015,05,08,16,15,22.20
2015,05,08,16,16,22.20
2015,05,08,16,17,22.20
2015,05,08,16,18,22.10
2015,05,08,16,19,22.00
2015,05,08,16,20,21.90
2015,05,08,16,21,21.80
2015,05,08,16,22,21.70
2015,05,08,16,23,21.60
2015,05,08,16,24,21.50
2015,05,08,16,25,21.40
2015,05,08,16,26,21.40
2015,05,08,16,27,21.40
2015,05,08,16,28,21.30
2015,05,08,16,29,21.30
2015,05,08,16,30,21.40
2015,05,08,16,31,21.40
2015,05,08,16,32,21.40
2015,05,08,16,33,21.40
2015,05,08,16,34,21.40
2015,05,08,16,35,21.40
2015,05,08,16,36,21.40
2015,05,08,16,37,21.50
2015,05,08,16,38,21.40
2015,05,08,16,39,21.40
2015,05,08,16,40,21.40
2015,05,08,16,41,21.40
2015,05,08,16,42,21.40
2015,05,08,16,43,21.40
2015,05,08,16,44,21.50
2015,05,08,16,45,21.60
2015,05,08,16,46,21.70
2015,05,08,16,47,21.80
2015,05,08,16,48,21.80
2015,05,08,16,49,21.80
2015,05,08,16,50,21.80
2015,05,08,16,51,21.70
2015,05,08,16,52,21.70
2015,05,08,16,53,21.70
2015,05,08,16,54,21.60
2015,05,08,16,55,21.50
2015,05,08,16,56,21.50
2015,05,08,16,57,21.60
2015,05,08,16,58,21.60
2015,05,08,16,59,21.80
2015,05,08,17,00,21.80
2015,05,08,17,01,21.90
2015,05,08,17,02,21.90
2015,05,08,17,03,22.00
2015,05,08,17,04,22.10
2015,05,08,17,05,22.10
2015,05,08,17,06,22.10
2015,05,08,17,07,22.10
2015,05,08,17,08,22.10
2015,05,08,17,09,22.10
2015,05,08,17,10,22.00
2015,05,08,17,11,22.00
2015,05,08,17,12,22.00
2015,05,08,17,13,22.00
2015,05,08,17,14,22.10
2015,05,08,17,15,22.10
2015,05,08,17,16,22.20
2015,05,08,17,17,22.20
2015,05,08,17,18,22.10
2015,05,08,17,19,22.20
2015,05,08,17,20,22.20
2015,05,08,17,21,22.20
2015,05,08,17,22,22.20